Regional Weather Roundup
Issued by NWS

Home | Current Version | Previous Version | Graphics & Text | Print | Product List | Glossary On
Versions: 1 2 3 4 5 6 7 8 9 10 11 12 13 14 15 16 17 18 19 20 21 22 23 24 25 26 27 28 29 30 31 32 33 34 35 36 37 38 39 40 41 42 43 44 45 46 47 48 49 50
000
ASUS43 KDMX 292107
RWRIA

WEATHER ROUNDUP FOR IOWA
NATIONAL WEATHER SERVICE DES MOINES IA
400 PM CDT WED JUL 29 2015

NOTE: "FAIR" INDICATES FEW OR NO CLOUDS BELOW 12,000 FEET WITH NO
SIGNIFICANT WEATHER AND/OR OBSTRUCTIONS TO VISIBILITY.

* - THESE STATIONS ARE NOT NWS STATIONS...THUS NOT UNDER NWS
QUALITY CONTROL.  THEY ALSO DO NOT REPORT WEATHER SUCH
AS PRECIPITATION OR FOG.

IAZ001>003-012>014-020>022-031>034-043>046-292200-
   NORTHWEST IOWA

CITY           SKY/WX    TMP DP  RH WIND       PRES   REMARKS
CARROLL *      SUNNY     81  57  44 W10G18    30.13S HX  81
CHEROKEE *     SUNNY     81  55  41 W9G18     30.11F HX  80
DENISON *      SUNNY     81  59  47 W12       30.12F HAZE    HX  81
LE MARS *      SUNNY     82  55  39 W15       30.13S HX  82
ORANGE CITY *  SUNNY     81  55  41 W15       30.12S HX  80
SHELDON *      SUNNY     81  55  41 W15G22    30.10S HX  80
SIOUX CITY     SUNNY     84  58  40 W9        30.12F HX  83
SPENCER        SUNNY     83  52  34 W23G29    30.10F HX  82
STORM LAKE *   SUNNY     79  55  44 W15       30.13F
$$

IAZ055>058-069>071-079>083-090>094-292200-
   SOUTHWEST IOWA

CITY           SKY/WX    TMP DP  RH WIND       PRES   REMARKS
ATLANTIC *     SUNNY     81  61  50 NW9       30.15S HX  81
AUDUBON *      SUNNY     82  55  39 NW8       30.15F HX  82
CLARINDA *     SUNNY     81  63  54 N9        30.16S HX  82
COUNCIL BLFS * SUNNY     82  57  42 NW7G14    30.16S HX  82
CRESTON *      SUNNY     81  55  41 NW10      30.15F HX  80
HARLAN  *      SUNNY     81  59  47 NW9       30.18S HX  81
LAMONI           N/A    N/A N/A N/A MISG      30.14F
RED OAK *      SUNNY     82  55  39 NW8       30.15F HX  82
SHENANDOAH *   SUNNY     82  61  47 N6        30.15F HX  83
$$

IAZ047>049-059>061-072>074-084-292200-
   CENTRAL IOWA

CITY           SKY/WX    TMP DP  RH WIND       PRES   REMARKS
AMES           SUNNY     81  56  42 W9G20     30.10F HX  81
ANKENY *       SUNNY     82  55  39 NW13      30.11S HX  82
CHARITON *     SUNNY     82  55  39 NW13      30.13F HX  82
DES MOINES     MOSUNNY   85  51  31 NW15      30.11F HX  83
GRINNELL*      SUNNY     81  59  47 W9        30.11S HX  81
KNOXVILLE *    SUNNY     82  59  44 NW7       30.11S HX  82
MARSHALLTOWN   SUNNY     81  55  40 W17G23    30.09S HX  81
PELLA *        SUNNY     82  63  51 NW10G17   30.12S HX  83
PERRY *          N/A     79  59  50 NW9       30.12F HX  80
$$

IAZ004>006-015-016-023>025-035-036-292200-
   NORTH CENTRAL IOWA

CITY           SKY/WX    TMP DP  RH WIND       PRES   REMARKS
ALGONA *       SUNNY     81  55  41 W16G26    30.08S HX  80
CLARION *      SUNNY     81  57  44 W18       30.09S HX  81
ESTHERVILLE    SUNNY     79  54  41 W20G30    30.08S
FORT DODGE *   SUNNY     81  57  44 W13G22    30.11F HX  81
MASON CITY     SUNNY     83  57  41 W20G29    30.07S HX  82
FOREST CITY *  SUNNY     79  55  44 W13G20    30.06S
IOWA FALLS *     N/A     81  55  41 W13G24    30.10S HX  80
$$

IAZ007>011-017>019-026>030-037>042-050>054-066-292200-
   NORTHEAST IOWA

CITY           SKY/WX    TMP DP  RH WIND       PRES   REMARKS
CEDAR RAPIDS   SUNNY     81  60  48 NW13G22   30.07F HX  82
CHARLES CITY * SUNNY     81  57  44 W13G28    30.06S HX  81
CLINTON *      SUNNY     81  59  47 W15       30.07S HX  81
DECORAH *      SUNNY     81  54  39 W9G26     30.02S HX  80
DUBUQUE        SUNNY     82  54  37 W17G25    30.05F HX  81
MONTICELLO *   SUNNY     82  57  42 NW12G24   30.05F HX  82
OELWEIN *      SUNNY     81  57  44 W15G22    30.06F HX  81
WATERLOO       SUNNY     82  56  40 W14G23    30.05S HX  82
$$

IAZ064-065-067-068-078-292200-
   EAST CENTRAL IOWA

CITY           SKY/WX    TMP DP  RH WIND       PRES   REMARKS
DAVENPORT      SUNNY     82  60  47 W8        30.06F HX  82
IOWA CITY      SUNNY     84  57  39 NW14G22   30.09S HX  83
MT. PLEASANT * SUNNY     84  46  26 NW10G16   30.10S HX  82
MUSCATINE *    SUNNY     84  57  39 W14       30.08S HX  83
QUAD CITIES    MOSUNNY   85  56  37 NW8       30.05F HX  84
$$

IAZ062-063-075>077-085>089-095>099-292200-
   SOUTHEAST IOWA

CITY           SKY/WX    TMP DP  RH WIND       PRES   REMARKS
BURLINGTON     SUNNY     83  58  42 NW9       30.09S HX  83
FAIRFIELD *    SUNNY     82  57  42 NW10G16   30.10F HX  82
FORT MADISON * SUNNY     81  59  47 NW13      30.10F HX  81
KEOKUK *       SUNNY     84  57  39 NW8G14    30.09F HX  83
OSKALOOSA *      N/A     81  59  47 NW9       30.11F HX  81
CENTERVILLE *  SUNNY     81  61  50 NW8       30.14F HX  81
OTTUMWA        SUNNY     82  61  48 NW12      30.10S HX  83
WASHINGTON *   SUNNY     82  59  44 NW9       30.11S HX  82
$$

ABBREVIATIONS USED IN REMARKS
   TC - TEMPERATURES IN CELSIUS
  WCI - WIND CHILL INDEX
   HX - HEAT INDEX
  VSB - VISIBILITY
$$



USA.gov is the U.S. government's official web portal to all federal, state and local government web resources and services.